This is the latest recevied weather packets stored in our database for station/object OK3MS-5. If no packets are shown the sender has not sent any weather packets the latest 10 day(s).
| Time | Temp. | Humidity | Pressure | Rain* | Wind** | Luminosity | Snow |
|---|---|---|---|---|---|---|---|
| 1787851803 | 25° C | 56% | 1014 hPa | 0 mm | - | 15 W/m² | - |
| 1787851506 | 25° C | 55% | 1013.9 hPa | 0 mm | - | 22 W/m² | - |
| 1787851203 | 25° C | 54% | 1013.8 hPa | 0 mm | - | 31 W/m² | - |
| 1787850904 | 25.56° C | 54% | 1013.8 hPa | 0 mm | - | 40 W/m² | - |
| 1787850604 | 25.56° C | 53% | 1013.7 hPa | 0 mm | - | 47 W/m² | - |
| 1787850306 | 25.56° C | 53% | 1013.7 hPa | 0 mm | - | 53 W/m² | - |
| 1787850004 | 25.56° C | 53% | 1013.7 hPa | 0 mm | - | 56 W/m² | - |
| 1787849705 | 25.56° C | 52% | 1013.8 hPa | 0 mm | - | 61 W/m² | - |
| 1787849403 | 25.56° C | 53% | 1013.8 hPa | 0 mm | - | 64 W/m² | - |
| 1787849107 | 25.56° C | 53% | 1013.8 hPa | 0 mm | - | 67 W/m² | - |
| 1787848804 | 25.56° C | 53% | 1014 hPa | 0 mm | - | 75 W/m² | - |
| 1787848506 | 25.56° C | 53% | 1013.9 hPa | 0 mm | - | 89 W/m² | - |
| 1787848205 | 25.56° C | 52% | 1013.9 hPa | 0 mm | - | 92 W/m² | - |
| 1787847904 | 25.56° C | 52% | 1013.9 hPa | 0 mm | - | 91 W/m² | - |
| 1787847603 | 25.56° C | 52% | 1013.9 hPa | 0 mm | - | 80 W/m² | - |
| 1787847304 | 25.56° C | 53% | 1013.9 hPa | 0 mm | - | 101 W/m² | - |
| 1787847005 | 26.11° C | 52% | 1014.1 hPa | 0 mm | - | 112 W/m² | - |
| 1787846706 | 26.11° C | 52% | 1014 hPa | 0 mm | - | 107 W/m² | - |
| 1787846403 | 26.67° C | 50% | 1014 hPa | 0 mm | - | 107 W/m² | - |
| 1787846107 | 26.67° C | 50% | 1014 hPa | 0 mm | - | 163 W/m² | - |
| 1787845803 | 26.67° C | 50% | 1014.1 hPa | 0 mm | - | 210 W/m² | - |
| 1787845505 | 26.11° C | 51% | 1014 hPa | 0 mm | - | 242 W/m² | - |
| 1787845202 | 26.11° C | 51% | 1014.1 hPa | 0 mm | - | 218 W/m² | - |
| 1787844906 | 26.11° C | 52% | 1014.2 hPa | 0 mm | - | 197 W/m² | - |
| 1787844604 | 26.11° C | 51% | 1014.1 hPa | 0 mm | - | 122 W/m² | - |
* Rain latest hour (hover to see other rain measurements)
** Current wind speed in m/s (hover to see current wind gust speed)